Location: ?????????
(41.1143°N, 22.7905°E)
Time: 21:13:11
(UTC+00:00)

Cosmos 1825 Rocket - Pass Details

Date: 13 December 2025
Orbit: 597 x 624 km, 82.5° (Epoch: 21 January)

Event Time Altitude Azimuth Distance (km) Brightness Sun altitude
Rises 16:13:30 0° 348° (NNW) 2,873 6.9 -13.3°
Reaches altitude 10° 16:15:44 10° 346° (NNW) 1,960 6.1 -13.7°
Maximum altitude 16:20:01 63° 265° (W) 674 4.0 -14.4°
Drops below altitude 10° 16:24:14 10° 185° (S) 1,932 6.4 -15.2°
Sets 16:26:26 0° 182° (S) 2,827 7.2 -15.6°
